Regional Weather Roundup
Issued by NWS

Home | Current Version | Previous Version | Graphics & Text | Print | Product List | Glossary On
Versions: 1 2 3 4 5 6 7 8 9 10 11 12 13 14 15 16 17 18 19 20 21 22 23 24 25 26 27 28 29 30 31 32 33 34 35 36 37 38 39 40 41 42 43 44 45 46 47 48 49 50
000
ASUS45 KBOU 060307
RWRCO

WEATHER ROUNDUP FOR COLORADO
NATIONAL WEATHER SERVICE DENVER/BOULDER CO
800 PM MST THU MAR 05 2015

NOTE: "FAIR" INDICATES FEW OR NO CLOUDS BELOW 12000 FEET WITH NO
SIGNIFICANT WEATHER AND/OR OBSTRUCTIONS TO VISIBILITY.

COZ001>005-013-030-031-060400-
...NORTHWEST COLORADO...

CITY           SKY/WX    TMP DP  RH WIND       PRES   REMARKS
CRAIG          CLEAR     23  14  68 CALM      30.37S
HAYDEN         CLEAR     23  10  58 SE6       30.37R WCI  16
MEEKER         CLEAR     30  21  69 NE3       30.38R
MOUNT WERNER   NOT AVBL
STEAMBOAT SPGS CLEAR     24   9  53 CALM      30.37S
WALDEN         PTCLDY    21   5  49 S7        30.32S WCI  13
$$

COZ006>008-011-060400-
...WEST CENTRAL VALLEYS...

CITY           SKY/WX    TMP DP  RH WIND       PRES   REMARKS
GRAND JUNCTION CLEAR     29  22  75 CALM      30.40R
MONTROSE       PTCLDY    33  21  61 S7        30.42R WCI  27
EAGLE          CLEAR     28  19  69 VRB7      30.40R WCI  21
RIFLE          CLEAR     32  21  64 S3        30.40R
DELTA          PTCLDY    38  22  51 CALM      30.40R
NUCLA          PTCLDY    34  21  60 E8        30.42R WCI  27
$$

COZ017>023-064>068-060400-
...SOUTHWEST COLORADO...

CITY           SKY/WX    TMP DP  RH WIND       PRES   REMARKS
DURANGO        CLEAR     26  17  68 CALM      30.35R
CORTEZ         CLEAR     32  22  66 E6        30.39R WCI  26
PAGOSA SPRINGS CLEAR     29  11  48 NE5       30.38R WCI  24
TELLURIDE      PTCLDY    23   6  47 SE7       30.40S WCI  15
WOLF CREEK PAS PTCLDY    14   5  67 SW7       30.39S WCI   4
$$

COZ009-010-012-014-032>034-037-058>063-060400-
...CENTRAL COLORADO...

CITY           SKY/WX    TMP DP  RH WIND       PRES   REMARKS
ASPEN          PTCLDY    21  10  62 S9        30.38R WCI  11
BUENA VISTA    PTCLDY    30   7  38 NW8       30.31R WCI  22
COPPER MTN     PTCLDY    16   3  57 W16       30.33S WCI   0
BERTHOUD PASS  NOT AVBL
COTTONWOOD PAS PTCLDY    30  -2  24 NW12G17   30.30R WCI  21
GUNNISON       PTCLDY    16   7  67 NE3       30.42R
KREMMLING      PTCLDY    18  12  79 CALM      30.38R
LEADVILLE      CLEAR     11   1  64 NE5       30.34R WCI   3
SALIDA         PTCLDY    32  12  44 SW7       30.39R WCI  26
SUNLIGHT       PTCLDY    18  14  86 CALM        N/A
WILKERSON PASS MOCLDY    19   0  42 W8G17     30.31S WCI   9
$$

COZ069>075-060400-
...SAN LUIS VALLEY/SANGRE DE CRISTO MOUNTAINS...

CITY           SKY/WX    TMP DP  RH WIND       PRES   REMARKS
ALAMOSA        CLEAR     26  14  60 NW5       30.35R WCI  20
LA VETA PASS   CLEAR     21   3  45 S13G21    30.28R WCI   9
SAGUACHE       CLEAR     27  14  59 NW3       30.36R
$$

COZ035-036-038>040-060400-
...NORTHERN COLORADO FRONT RANGE...

CITY           SKY/WX    TMP DP  RH WIND       PRES   REMARKS
DENVER INTL AP PTCLDY    27  18  69 SW7       30.25R WCI  19
DMNS CITY PARK   N/A     27  15  60 CALM      30.26S
AURORA         PTCLDY    26  19  76 SW2       30.26R
FRONT RANGE AP NOT AVBL
ERIE MUNI ARPT PTCLDY    20  12  71 S6        30.26S WCI  12
BOULDER MUN AP PTCLDY    28  18  64 CALM      30.25F
CENTENNIAL     PTCLDY    28  20  71 CALM      30.25R
BROOMFIELD     MOCLDY    27   9  46 W3        30.26R
FORT COLLINS   PTCLDY    30  18  59 CALM      30.27R
LONGMONT       PTCLDY    25  14  62 SW5       30.28S WCI  19
$$

COZ041-046-047-076>085-087-088-060400-
...PIKES PEAK/PALMER DIVIDE AND SOUTHERN FOOTHILLS...

CITY           SKY/WX    TMP DP  RH WIND       PRES   REMARKS
COLO. SPRINGS  PTCLDY    25  15  66 NW5       30.27R WCI  19
A. F. ACADEMY  CLEAR     24  13  64 N6        30.26R WCI  17
ELLICOTT       NOT AVBL
FALCON         CLEAR     22  14  69 W5        30.27R WCI  16
FORT CARSON    CLEAR     29  14  53 W5        30.26R WCI  24
LIMON          CLEAR     12   8  84 N6        30.28R WCI   3
MONUMENT HILL  CLEAR     27  14  59 SW6       30.24R WCI  20
TRINIDAD       CLEAR     35  24  64 W13       30.24R WCI  26
$$

COZ042>045-048>051-090-091-060400-
...NORTHEAST COLORADO...

CITY           SKY/WX    TMP DP  RH WIND       PRES   REMARKS
GREELEY ARPT   PTCLDY    28  16  59 CALM      30.25R
AKRON          CLEAR     31  16  54 N5        30.26R WCI  26
BURLINGTON     CLEAR     27  20  75 W8        30.27S WCI  19
WRAY           CLEAR     32  18  55 SW8       30.26R WCI  25
STERLING       CLEAR     28  19  69 W5        30.25S WCI  23
HOLYOKE        CLEAR     28  18  64 W7        30.25R WCI  21
FORT MORGAN    CLEAR     35   8  33 W8        30.26S WCI  29
$$

COZ086-089-092>099-060400-
...SOUTHEAST COLORADO...

CITY           SKY/WX    TMP DP  RH WIND       PRES   REMARKS
PUEBLO         CLEAR     31  25  78 N10       30.27R WCI  22
LA JUNTA       CLEAR     31  23  72 N9        30.25R WCI  23
LAMAR          CLEAR     28  20  71 CALM      30.25R
SPRINGFIELD      N/A     29  22  75 S12       30.26S WCI  19
$$


USA.gov is the U.S. government's official web portal to all federal, state and local government web resources and services.